GSAT0202 (GALILEO 6) (40129 NORAD) Tracking and Keplerian Element Data

This shows tracking and keplerian element data for the satellite.

Feedback or suggestion? Click here.




ElementValue
Catalog40129
NameGSAT0202 (GALILEO 6)
Epoch Orbit2962
Epoch Day350.41928998
Epoch Year2018
RAAN22.3161
Inclination50.5781
Eccentricity0.1656822
Argument of Perigee82.5782
Mean Anonmoly295.9405
Mean Motion1.85520497
Decay Rate-8.6E-07
L11 40129U 14050B 18350.41928998 -.00000086 00000-0 00000+0 0 9997
L22 40129 50.5781 22.3161 1656822 82.5782 295.9405 1.85520497 29625

Live tracking and technical data element details for GSAT0202 (GALILEO 6) (NORAD 40129). GSAT0202 (GALILEO 6) can be tracked NOW for your location showing map with azimuth and elevation plus other details from your city location.

Track the satellite on the map from your city or location and see movement details for azimuth, elevation, latitude, longitude, range, height, and movement on the map or in text.







IsCatalogInMostPopularTable: catalog: 40129, numindb: 102
Update: records affected: 1



GetName: 40129 GSAT0202 (GALILEO 6)

Hit Count: updated at: Tue, 18 Dec 2018 21:40:38 GMT